Vorticity
5 6 7 7 7 7 8 8 7 7 6 6 4 4 4 5 6 4 4 6 10 15 12 9 -6 -5 4 10 9 6 6 7 7 10 9 9 10 17 14 20 19 6 9 6 7 11 4
6 7 7 7 7 7 8 7 7 6 6 6 4 5 6 5 6 4 5 6 12 14 17 11 0 -5 -5 14 9 5 7 8 9 9 8 16 7 17 8 12 4 6 9 15 -9 15 6
5 6 7 7 7 8 8 7 7 6 5 5 5 5 6 6 5 5 5 8 13 8 17 13 -0 24 -3 8 7 4 6 8 10 6 10 13 15 12 13 23 5 14 21 -9 12 14 7
4 6 7 8 7 7 8 6 6 6 5 6 5 5 7 6 5 5 6 10 12 6 20 -20 9 14 -2 6 5 4 6 8 10 6 13 13 18 6 13 15 23 7 8 22 -18 -13 3
4 5 7 8 7 7 9 6 6 5 5 5 5 5 6 7 4 6 6 11 11 8 22 -11 1 7 -2 7 -2 8 9 15 9 9 10 13 9 10 11 15 7 -6 9 6 31 8 13
4 4 7 9 7 8 9 6 5 5 5 5 5 5 7 9 4 5 5 12 9 9 14 -0 -8 26 4 6 2 7 6 13 8 8 22 15 4 9 13 13 5 -11 1 6 -4 -19 -0
4 4 7 10 7 8 9 6 5 5 4 5 5 5 7 9 3 5 5 12 12 -0 -2 -16 -8 4 5 6 -4 7 6 14 6 4 30 15 -6 15 8 7 4 -0 16 8 4 21 -2
4 4 12 10 7 8 9 6 5 4 4 5 6 5 8 9 4 6 6 12 13 11 23 -24 -10 6 4 5 -7 5 9 18 8 4 26 15 -12 12 8 5 2 2 28 5 34 -35 35
5 6 10 9 7 8 8 7 5 4 5 6 5 6 7 8 6 6 6 13 10 24 9 -34 -11 4 3 6 -8 6 7 10 8 -2 38 14 4 11 8 1 -0 9 5 1 -3 27 23
5 7 9 9 7 7 7 7 5 5 6 5 6 6 6 8 7 7 7 14 7 28 1 -32 -7 -2 0 6 -23 4 6 10 3 -4 51 16 3 12 2 12 -6 47 -5 4 21 33 3
5 5 7 9 8 6 6 6 6 5 5 6 6 7 5 7 6 6 8 15 12 22 15 15 -7 2 5 2 10 -4 6 8 -3 10 38 18 8 16 17 -1 4 -6 9 22 28 23 14
6 5 6 9 8 7 6 6 6 5 5 5 6 7 4 7 7 7 10 18 12 27 -12 17 6 17 6 -1 12 3 7 2 10 17 38 27 10 4 14 1 39 3 10 56 20 8 14
6 5 5 8 9 8 7 6 6 6 5 5 6 6 6 6 7 7 12 17 13 13 -1 -8 -6 12 5 -2 11 2 2 5 11 50 12 34 7 -6 -9 16 36 6 47 10 18 11 -5
6 6 4 7 9 8 7 7 7 6 6 6 6 6 7 6 8 7 11 21 13 2 0 8 12 6 5 0 7 3 2 3 -2 12 37 -0 16 8 0 3 21 3 20 22 15 4 -31
6 6 5 5 8 8 8 7 7 7 7 6 5 6 7 6 7 7 11 3 1 14 8 9 25 9 7 -4 31 15 3 2 -5 8 49 8 4 10 -3 21 15 7 1 9 10 41 16
6 5 5 4 8 8 8 8 7 7 7 6 6 6 6 5 9 6 9 11 8 11 8 10 21 5 5 -2 22 12 7 0 -2 8 9 -25 15 3 -21 31 -5 19 7 7 1 12 20
6 5 5 4 7 7 8 8 7 7 6 6 7 6 5 5 11 6 9 10 6 8 9 16 10 11 4 4 23 8 -12 24 -3 8 13 18 25 -35 51 -8 23 9 9 12 20 9 4
7 6 5 5 5 7 8 8 8 7 6 7 7 9 12 3 14 7 7 6 5 5 9 5 14 10 2 6 23 11 -5 1 6 12 8 2 13 -9 17 28 -2 17 5 -3 22 -4 -14
6 7 6 6 4 7 8 8 8 7 6 7 9 12 9 3 0 10 6 3 6 8 10 2 12 6 6 10 31 14 1 17 2 15 -0 -1 -18 18 3 7 -9 -7 -6 12 7 35 18
4 7 7 6 4 5 7 8 8 7 6 7 9 10 9 23 0 9 6 2 5 7 14 2 9 10 9 15 1 1 -3 3 15 16 12 18 -10 13 -23 -20 -5 12 10 8 20 14 1
5 5 8 6 6 5 6 7 8 7 6 5 8 10 8 -7 13 8 8 4 6 7 10 1 -0 8 11 14 19 -11 6 12 19 3 3 10 -4 12 16 37 20 10 10 30 17 1 -1
5 5 7 8 7 5 6 6 9 7 5 6 6 7 7 12 10 7 8 2 6 4 15 1 9 10 14 7 11 6 11 18 20 5 7 10 -13 5 39 6 -6 42 4 2 -3 -20 18
6 5 7 8 8 6 5 6 8 8 6 4 4 6 6 6 12 5 6 1 5 4 9 3 7 10 15 5 10 9 20 17 10 10 9 14 6 31 1 -12 44 24 -7 11 -34 22 37
6 5 6 8 8 7 5 5 7 8 7 5 4 11 5 8 8 5 7 3 4 5 10 5 6 10 5 13 9 13 19 20 12 9 5 3 9 39 -10 31 12 -35 12 -24 -6 41 13
6 6 6 7 7 8 6 6 6 7 8 5 2 12 7 8 5 10 7 7 2 9 10 6 5 5 14 8 21 33 12 18 1 10 4 7 15 27 6 18 -6 43 -19 -12 35 54 -25
7 7 6 6 9 9 8 6 5 7 8 5 -0 12 4 4 9 9 2 10 1 8 9 3 6 11 11 17 13 11 4 3 11 11 6 1 18 25 17 13 5 -29 -20 4 38 20 -22
13 9 9 9 8 9 10 7 6 6 8 7 1 10 4 4 9 4 9 1 10 9 7 9 1 18 1 14 20 15 10 -6 10 15 -18 20 6 10 17 7 11 34 -22 38 16 -81 8
12 10 11 9 9 10 12 8 6 6 7 7 1 2 4 6 -0 16 2 5 17 10 6 -2 13 -0 30 15 20 -0 6 9 9 -6 14 17 22 11 13 13 17 -35 21 22 1 13 7
4 0 5 7 12 9 10 11 7 6 6 8 7 3 6 7 -9 4 8 5 4 18 1 5 2 11 -5 4 -12 7 4 29 -6 26 10 20 -1 7 15 -15 4 6 7 14 12 9 7
Height
3181 3181 3181 3181 3180 3180 3179 3178 3178 3177 3176 3175 3174 3173 3172 3170 3167 3164 3161 3157 3153 3150 3149 3147 3146 3144 3140 3137 3136 3130 3124 3118 3114 3110 3104 3099 3095 3091 3088 3084 3081 3080 3078 3076 3073 3070 3069
3182 3182 3181 3181 3181 3180 3180 3179 3179 3178 3177 3176 3175 3174 3172 3170 3167 3164 3160 3156 3153 3150 3147 3146 3146 3143 3139 3136 3130 3129 3123 3116 3112 3107 3099 3095 3090 3087 3083 3081 3080 3078 3077 3074 3071 3069 3066
3183 3182 3182 3182 3182 3181 3181 3180 3179 3179 3178 3176 3175 3174 3172 3169 3167 3164 3160 3156 3152 3149 3147 3146 3145 3141 3139 3135 3126 3118 3118 3114 3109 3103 3097 3091 3087 3084 3082 3079 3077 3076 3073 3071 3067 3065 3061
3183 3183 3182 3182 3182 3181 3181 3180 3180 3179 3178 3177 3176 3174 3172 3169 3167 3164 3160 3155 3151 3149 3147 3146 3143 3140 3137 3132 3127 3125 3115 3111 3106 3100 3095 3090 3087 3085 3082 3078 3075 3072 3070 3067 3064 3060 3055
3183 3183 3183 3182 3182 3182 3181 3181 3180 3180 3179 3178 3176 3174 3172 3170 3167 3163 3159 3154 3151 3148 3146 3146 3143 3139 3135 3132 3129 3123 3118 3113 3105 3099 3093 3087 3084 3082 3079 3076 3073 3069 3067 3063 3058 3055 3049
3183 3183 3183 3183 3182 3182 3182 3182 3181 3180 3179 3178 3177 3175 3173 3170 3167 3163 3158 3154 3150 3148 3147 3146 3144 3141 3138 3133 3126 3119 3115 3108 3103 3099 3092 3086 3083 3079 3077 3075 3074 3068 3064 3059 3057 3054 3045
3184 3183 3183 3183 3183 3183 3183 3182 3182 3181 3180 3178 3177 3175 3173 3170 3166 3162 3158 3154 3153 3150 3148 3146 3145 3140 3137 3133 3128 3122 3116 3109 3105 3100 3091 3084 3082 3076 3074 3073 3071 3068 3062 3055 3051 3047 3040
3183 3184 3183 3183 3183 3183 3183 3183 3182 3181 3180 3179 3177 3175 3172 3169 3166 3162 3158 3154 3151 3150 3145 3146 3142 3138 3135 3130 3126 3123 3118 3110 3101 3092 3085 3081 3078 3076 3073 3071 3068 3063 3057 3052 3045 3044 3037
3184 3184 3183 3183 3183 3183 3183 3183 3182 3182 3181 3179 3177 3174 3172 3169 3166 3163 3158 3154 3149 3145 3145 3146 3142 3137 3134 3129 3122 3117 3109 3105 3097 3088 3084 3082 3081 3075 3073 3069 3065 3059 3053 3049 3045 3034 3030
3183 3184 3183 3183 3183 3183 3183 3183 3182 3182 3181 3179 3177 3174 3172 3169 3168 3162 3158 3153 3148 3145 3145 3147 3141 3135 3132 3124 3120 3114 3110 3107 3098 3095 3086 3082 3079 3077 3072 3069 3062 3053 3051 3045 3037 3034 3032
3182 3183 3183 3183 3183 3183 3183 3182 3182 3181 3181 3179 3177 3174 3172 3169 3166 3162 3158 3152 3149 3146 3146 3148 3142 3138 3132 3130 3124 3117 3110 3104 3100 3094 3089 3085 3079 3075 3072 3066 3059 3052 3046 3038 3033 3032 3030
3181 3182 3182 3182 3182 3182 3182 3182 3181 3181 3180 3179 3177 3175 3172 3170 3166 3162 3157 3152 3150 3150 3147 3146 3142 3137 3132 3126 3121 3116 3113 3105 3098 3093 3085 3080 3076 3072 3068 3065 3058 3052 3043 3032 3030 3029 3027
3180 3181 3181 3182 3182 3182 3181 3181 3180 3179 3179 3178 3177 3175 3172 3169 3166 3162 3157 3154 3153 3152 3154 3148 3140 3134 3129 3124 3118 3112 3105 3098 3094 3087 3083 3078 3075 3070 3066 3060 3056 3051 3042 3036 3030 3027 3023
3179 3179 3180 3180 3180 3180 3180 3180 3179 3178 3177 3176 3175 3174 3171 3169 3165 3162 3158 3156 3154 3155 3150 3145 3139 3133 3129 3121 3116 3111 3106 3100 3094 3092 3083 3079 3073 3072 3068 3065 3059 3055 3053 3055 3048 3034 3028
3176 3177 3178 3179 3179 3179 3179 3179 3178 3177 3176 3175 3174 3173 3171 3168 3165 3162 3160 3157 3157 3152 3148 3142 3136 3130 3127 3123 3118 3110 3105 3101 3097 3090 3091 3082 3075 3071 3068 3063 3062 3056 3059 3058 3054 3044 3038
3174 3175 3176 3177 3177 3177 3177 3177 3176 3176 3175 3174 3173 3171 3170 3167 3164 3162 3160 3157 3154 3149 3145 3141 3136 3132 3127 3122 3117 3111 3107 3102 3099 3094 3088 3084 3075 3070 3068 3062 3061 3061 3059 3055 3053 3042 3028
3172 3173 3173 3174 3175 3175 3175 3175 3175 3174 3174 3173 3172 3170 3168 3165 3163 3161 3159 3156 3152 3148 3144 3141 3136 3131 3127 3121 3115 3111 3108 3103 3099 3095 3088 3082 3079 3073 3065 3062 3059 3059 3057 3056 3054 3052 3042
3169 3169 3171 3171 3172 3172 3173 3173 3172 3172 3172 3171 3170 3169 3166 3164 3163 3159 3157 3154 3152 3147 3143 3139 3135 3130 3125 3120 3113 3110 3109 3105 3100 3094 3089 3085 3078 3069 3066 3061 3059 3056 3055 3055 3055 3049 3044
3165 3167 3168 3168 3169 3170 3170 3170 3170 3170 3169 3169 3168 3166 3164 3162 3160 3157 3155 3153 3150 3145 3141 3137 3134 3130 3125 3120 3116 3110 3106 3101 3096 3092 3090 3087 3079 3070 3065 3061 3055 3055 3052 3049 3047 3046 3039
3161 3162 3163 3165 3166 3166 3167 3166 3166 3167 3167 3167 3166 3164 3162 3160 3158 3156 3153 3151 3148 3144 3140 3136 3133 3128 3123 3119 3116 3111 3106 3100 3094 3090 3088 3084 3080 3079 3077 3067 3061 3053 3050 3045 3044 3041 3033
3155 3157 3159 3160 3162 3162 3163 3163 3163 3163 3164 3164 3163 3161 3160 3158 3155 3153 3152 3149 3146 3142 3139 3135 3131 3127 3122 3117 3112 3107 3102 3099 3094 3088 3085 3081 3074 3070 3063 3057 3053 3047 3043 3042 3039 3035 3028
3150 3152 3154 3155 3157 3158 3159 3159 3159 3160 3160 3160 3160 3159 3157 3155 3153 3151 3149 3147 3143 3140 3137 3134 3129 3125 3120 3116 3113 3105 3099 3094 3092 3086 3082 3078 3072 3064 3053 3051 3047 3041 3040 3036 3032 3027 3015
3143 3146 3148 3149 3151 3153 3154 3155 3156 3156 3157 3156 3156 3155 3154 3153 3151 3150 3148 3144 3141 3138 3135 3132 3127 3122 3118 3114 3109 3104 3098 3093 3090 3085 3081 3076 3069 3062 3052 3048 3043 3042 3036 3031 3026 3019 3008
3137 3139 3141 3143 3145 3146 3148 3150 3151 3152 3153 3153 3152 3152 3151 3150 3148 3147 3144 3142 3139 3136 3133 3129 3124 3119 3116 3109 3105 3099 3094 3090 3086 3083 3080 3075 3069 3062 3053 3047 3040 3034 3033 3029 3020 3010 3005
3129 3131 3135 3137 3138 3140 3142 3144 3146 3147 3148 3148 3148 3148 3147 3146 3145 3144 3142 3139 3136 3133 3130 3126 3122 3118 3111 3107 3101 3095 3089 3088 3084 3081 3078 3074 3070 3066 3060 3052 3041 3034 3032 3024 3014 3004 2997
3121 3124 3127 3129 3132 3134 3136 3139 3140 3142 3143 3143 3144 3144 3144 3143 3141 3140 3138 3136 3133 3130 3127 3123 3119 3114 3109 3104 3100 3096 3093 3089 3083 3079 3076 3073 3068 3068 3061 3056 3042 3034 3030 3024 3012 3001 2997
3113 3116 3120 3121 3125 3127 3130 3131 3133 3135 3137 3138 3139 3139 3139 3138 3137 3135 3133 3131 3129 3126 3124 3119 3116 3111 3107 3101 3097 3095 3091 3089 3083 3079 3073 3071 3066 3062 3059 3053 3041 3036 3030 3022 3019 3009 2991
3105 3108 3111 3114 3117 3120 3123 3125 3126 3129 3131 3133 3134 3134 3134 3133 3132 3130 3129 3127 3125 3123 3120 3117 3114 3107 3103 3100 3097 3095 3089 3086 3080 3075 3071 3068 3067 3063 3056 3052 3043 3036 3029 3026 3018 3006 2993
3097 3099 3103 3105 3109 3112 3115 3118 3118 3121 3124 3126 3127 3129 3128 3128 3127 3124 3123 3123 3120 3118 3116 3113 3111 3107 3104 3100 3096 3092 3089 3084 3079 3074 3068 3065 3065 3065 3061 3053 3046 3036 3028 3021 3012 3002 2993